Goshen, IN

12:55 AM EDT on June 27, 2017 (GMT -0400)
Goshen Municipal

Weather History for KGSH - September, 2012

Change the Weather History Date:

Sunday, September 16, 2012

  Actual Average Record
Temperature  
Mean Temperature 62 °F -  
Max Temperature 77 °F 72 °F 92 °F (1955)
Min Temperature 48 °F 53 °F 36 °F (1966)
Degree Days  
Heating Degree Days 4    
Growing Degree Days 12 (Base 50)    
Moisture  
Dew Point 48 °F    
Average Humidity 63    
Maximum Humidity 93    
Minimum Humidity 32    
Precipitation  
Precipitation 0.00 in - - ()
Sea Level Pressure  
Sea Level Pressure 30.09 in    
Wind  
Wind Speed 4 mph (South)    
Max Wind Speed 10 mph    
Max Gust Speed 17 mph    
Visibility 10 miles    
Events      
Averages and records for this station are not official NWS values.
T = Trace of Precipitation, MM = Missing Value Source: NWS Daily Summary

Daily Weather History Graph

Daily Weather History Graph

Search for Another Location

Airport or City:

Trip Planner

Search our weather history database for the weather conditions in past years. The results will help you decide how hot, cold, wet, or windy it might be!

Date:

Astronomy

Sep. 16, 2012 Rise Set
Actual Time 7:24 AM EDT 7:49 PM EDT
Civil Twilight 6:57 AM EDT 8:17 PM EDT
Nautical Twilight 6:24 AM EDT 8:50 PM EDT
Astronomical Twilight 5:50 AM EDT 9:23 PM EDT
Moon 8:04 AM EDT (9/16) 7:52 PM EDT (9/16)
Length of Visible Light 13h 20m
Length of Day
12h 24m
New Moon, 0% of the Moon is Illuminated
Sep 16
New Moon
Sep 22
First Quarter
Sep 29
Full
Oct 8
Last Quarter
Oct 15
New

Hourly Weather History & Observations

Time (EDT) Temp. Dew Point Humidity Pressure Visibility Wind Dir Wind Speed Gust Speed Precip Events Conditions
12:53 AM 54.0 °F 48.0 °F 80% 30.17 in 10.0 mi South 5.8 mph - N/A   Clear
1:53 AM 55.0 °F 46.9 °F 74% 30.16 in 10.0 mi Calm Calm - N/A   Clear
2:53 AM 55.0 °F 46.9 °F 74% 30.14 in 10.0 mi South 4.6 mph - N/A   Clear
3:53 AM 51.1 °F 46.9 °F 86% 30.14 in 10.0 mi Calm Calm - N/A   Clear
4:53 AM 50.0 °F 46.0 °F 86% 30.14 in 10.0 mi Calm Calm - N/A   Clear
5:53 AM 48.0 °F 46.0 °F 93% 30.14 in 10.0 mi Calm Calm - N/A   Clear
6:53 AM 48.9 °F 46.0 °F 90% 30.15 in 10.0 mi Calm Calm - N/A   Clear
8:53 AM 55.0 °F 50.0 °F 83% 30.15 in 10.0 mi Calm Calm - N/A   Clear
9:53 AM 61.0 °F 51.1 °F 70% 30.15 in 10.0 mi SW 5.8 mph - N/A   Clear
10:53 AM 66.0 °F 52.0 °F 60% 30.14 in 10.0 mi South 5.8 mph - N/A   Clear
11:53 AM 71.1 °F 51.1 °F 49% 30.13 in 10.0 mi WSW 5.8 mph - N/A   Clear
12:53 PM 73.9 °F 45.0 °F 35% 30.10 in 10.0 mi SSW 9.2 mph 17.3 mph N/A   Clear
1:53 PM 75.0 °F 45.0 °F 34% 30.09 in 10.0 mi SSW 10.4 mph - N/A   Clear
2:53 PM 75.9 °F 44.1 °F 32% 30.06 in 10.0 mi SSW 5.8 mph - N/A   Clear
3:53 PM 75.9 °F 46.0 °F 35% 30.05 in 10.0 mi South 8.1 mph - N/A   Clear
4:53 PM 75.0 °F 45.0 °F 34% 30.04 in 10.0 mi SW 6.9 mph - N/A   Partly Cloudy
5:53 PM 73.9 °F 45.0 °F 35% 30.02 in 10.0 mi South 5.8 mph - N/A   Clear
6:53 PM 72.0 °F 48.0 °F 43% 30.02 in 10.0 mi South 3.5 mph - N/A   Clear
7:53 PM 66.0 °F 48.9 °F 54% 30.02 in 10.0 mi SSE 3.5 mph - N/A   Clear
8:53 PM 59.0 °F 50.0 °F 72% 30.03 in 10.0 mi SSE 3.5 mph - N/A   Clear
9:53 PM 57.9 °F 50.0 °F 75% 30.02 in 10.0 mi SSE 3.5 mph - N/A   Clear
10:53 PM 55.9 °F 50.0 °F 80% 30.03 in 10.0 mi SSE 3.5 mph - N/A   Clear
11:53 PM 59.0 °F 48.9 °F 69% 30.03 in 10.0 mi SSE 3.5 mph - N/A   Clear